"read_dt","SO2 (ppb)","flags","PMT voltage (V)","lamp voltage (V)","lamp intensity (Hz)","internal temp (C)","react chamber temp (C)","sample flow (l/min)","pres (mmHg)","SO2 bkg (ppb)","SO2 coefficient"
2013-07-04 01:01:00,,,,,,,,,,,
"read_dt","SO2 (ppb)","flags","PMT voltage (V)","lamp voltage (V)","lamp intensity (Hz)","internal temp (C)","react chamber temp (C)","sample flow (l/min)","pres (mmHg)","SO2 bkg (ppb)","SO2 coefficient"
2013-07-04 06:20:00,5217E-4,5C000004,-0724,0917,11364,023.2,029.1,0.406,728.6,01.19,0.508
2013-07-04 06:21:00,4637E-4,5C000004,-0724,0918,11289,023.3,030.1,0.406,728.7,01.19,0.508
2013-07-04 06:22:00,3982E-4,5C000004,-0724,0919,11422,023.4,031.1,0.405,728.7,01.19,0.508
2013-07-04 06:23:00,5384E-4,5C000004,-0724,0919,11273,023.5,032.0,0.405,728.7,01.19,0.508
2013-07-04 06:24:00,5682E-4,5C000004,-0724,0919,11228,023.6,032.9,0.404,728.6,01.19,0.508
2013-07-04 06:25:00,4827E-4,5C000004,-0724,0919,11238,023.7,033.8,0.403,728.7,01.19,0.508
2013-07-04 06:26:00,5040E-4,5C000004,-0724,0920,11332,023.7,034.6,0.403,728.6,01.19,0.508
2013-07-04 06:27:00,4770E-4,5C000004,-0724,0921,11257,023.8,035.4,0.403,728.6,01.19,0.508
2013-07-04 06:28:00,4873E-4,5C000004,-0724,0921,11309,023.9,036.2,0.403,728.6,01.19,0.508
2013-07-04 06:29:00,3930E-4,5C000004,-0724,0921,11217,024.0,036.9,0.402,728.6,01.19,0.508
2013-07-04 06:30:00,4519E-4,5C000004,-0724,0921,11290,024.1,037.6,0.402,728.6,01.19,0.508
2013-07-04 06:31:00,3865E-4,5C000004,-0724,0922,11346,024.1,038.3,0.402,728.6,01.19,0.508
2013-07-04 06:32:00,3810E-4,5C000004,-0724,0922,11429,024.2,038.9,0.402,728.6,01.19,0.508
2013-07-04 06:33:00,3738E-4,5C000004,-0724,0922,11272,024.3,039.6,0.401,728.6,01.19,0.508
2013-07-04 06:34:00,3258E-4,5C000004,-0724,0923,11430,024.3,040.1,0.402,728.5,01.19,0.508
2013-07-04 06:35:00,4510E-4,5C000004,-0724,0923,11282,024.4,040.8,0.401,728.6,01.19,0.508
2013-07-04 06:36:00,4059E-4,5C000004,-0724,0923,11345,024.5,041.3,0.401,728.5,01.19,0.508
2013-07-04 06:37:00,3279E-4,5C000004,-0724,0923,11326,024.6,041.9,0.401,728.5,01.19,0.508
2013-07-04 06:38:00,2702E-4,5C000004,-0724,0923,11185,024.6,042.4,0.401,728.5,01.19,0.508
2013-07-04 06:39:00,2754E-4,5C000004,-0724,0923,11352,024.7,042.9,0.401,728.6,01.19,0.508
2013-07-04 06:40:00,3318E-4,5C000000,-0724,0923,11296,024.7,043.4,0.401,728.5,01.19,0.508
2013-07-04 06:41:00,2530E-4,5C000000,-0724,0924,11294,024.8,043.9,0.400,728.5,01.19,0.508
2013-07-04 06:42:00,2613E-4,5C000000,-0724,0924,11366,024.8,044.4,0.400,728.5,01.19,0.508
2013-07-04 06:43:00,3302E-4,5C000000,-0724,0924,11232,024.9,044.8,0.400,728.5,01.19,0.508
2013-07-04 06:44:00,2595E-4,5C000000,-0724,0924,11303,024.9,045.2,0.400,728.5,01.19,0.508
2013-07-04 06:45:00,3879E-4,5C000000,-0724,0923,11329,025.0,045.5,0.400,728.5,01.19,0.508
2013-07-04 06:46:00,2211E-4,5C000000,-0724,0924,11275,025.1,045.4,0.400,728.5,01.19,0.508
2013-07-04 06:47:00,2288E-4,5C000000,-0724,0924,11249,025.1,045.3,0.400,728.6,01.19,0.508
2013-07-04 06:48:00,2256E-4,5C000000,-0724,0925,11256,025.2,045.3,0.399,728.5,01.19,0.508
2013-07-04 06:49:00,3923E-4,5C000000,-0724,0924,11152,025.2,045.4,0.399,728.5,01.19,0.508
2013-07-04 06:50:00,3188E-4,5C000000,-0724,0924,11315,025.3,045.3,0.399,728.6,01.19,0.508
2013-07-04 06:51:00,2426E-4,5C000000,-0724,0925,11162,025.3,045.3,0.399,728.6,01.19,0.508
2013-07-04 06:52:00,2054E-4,5C000000,-0724,0925,11340,025.4,045.3,0.399,728.6,01.19,0.508
2013-07-04 06:53:00,2780E-4,5C000000,-0724,0925,11064,025.4,045.3,0.399,728.5,01.19,0.508
2013-07-04 06:54:00,2003E-4,5C000000,-0724,0925,11311,025.4,045.3,0.399,728.6,01.19,0.508
2013-07-04 06:55:00,2101E-4,5C000000,-0724,0924,11296,025.5,045.3,0.398,728.5,01.19,0.508
2013-07-04 06:56:00,2698E-4,5C000000,-0724,0925,11324,025.5,045.3,0.399,728.4,01.19,0.508
2013-07-04 06:57:00,2446E-4,5C000000,-0724,0923,11223,025.5,045.3,0.399,728.6,01.19,0.508
2013-07-04 06:58:00,1735E-4,5C000000,-0724,0924,11305,025.6,045.3,0.398,728.5,01.19,0.508
2013-07-04 06:59:00,2014E-4,5C000000,-0724,0925,11368,025.6,045.3,0.398,728.5,01.19,0.508
2013-07-04 07:00:00,1888E-4,5C000000,-0724,0924,11308,025.6,045.3,0.398,728.5,01.19,0.508
2013-07-04 07:01:00,2295E-4,5C000000,-0724,0925,11353,025.6,045.3,0.398,728.5,01.19,0.508
2013-07-04 07:02:00,1677E-4,5C000000,-0724,0923,11203,025.7,045.3,0.398,728.5,01.19,0.508
2013-07-04 07:03:00,2722E-4,5C000000,-0724,0924,11298,025.7,045.3,0.397,728.5,01.19,0.508
2013-07-04 07:04:00,3009E-4,5C000000,-0724,0923,11237,025.8,045.3,0.398,728.4,01.19,0.508
2013-07-04 07:05:00,1311E-4,5C000000,-0724,0924,11271,025.7,045.3,0.398,728.4,01.19,0.508
2013-07-04 07:06:00,2223E-4,5C000000,-0724,0925,11280,025.8,045.3,0.397,728.5,01.19,0.508
2013-07-04 07:07:00,3133E-4,5C000000,-0724,0924,11363,025.8,045.3,0.398,728.5,01.19,0.508
2013-07-04 07:08:00,1847E-4,5C000000,-0724,0923,11317,025.9,045.3,0.398,728.4,01.19,0.508
2013-07-04 07:09:00,2050E-4,5C000000,-0724,0924,11220,025.9,045.3,0.398,728.5,01.19,0.508
2013-07-04 07:10:00,9952E-5,5C000000,-0724,0924,11377,025.9,045.3,0.398,728.5,01.19,0.508
2013-07-04 07:11:00,2803E-4,5C000000,-0724,0924,11126,026.0,045.3,0.398,728.5,01.19,0.508
2013-07-04 07:12:00,1673E-4,5C000000,-0724,0925,11264,026.0,045.3,0.398,728.5,01.19,0.508
2013-07-04 07:13:00,2148E-4,5C000000,-0724,0925,11062,026.0,045.3,0.398,728.4,01.19,0.508
2013-07-04 07:14:00,1410E-4,5C000000,-0724,0924,11265,026.0,045.3,0.398,728.5,01.19,0.508
2013-07-04 07:15:00,1198E-4,5C000000,-0724,0924,11344,026.1,045.3,0.398,728.5,01.19,0.508
2013-07-04 07:16:00,2283E-4,5C000000,-0724,0925,11168,026.0,045.3,0.398,728.4,01.19,0.508
2013-07-04 07:17:00,2008E-4,5C000000,-0724,0924,11467,026.0,045.3,0.398,728.4,01.19,0.508
2013-07-04 07:18:00,2186E-4,5C000000,-0724,0924,11126,026.0,045.3,0.398,728.4,01.19,0.508
2013-07-04 07:19:00,1167E-4,5C000000,-0724,0924,11375,026.1,045.3,0.398,728.4,01.19,0.508
2013-07-04 07:20:00,2394E-4,5C000000,-0724,0924,11251,026.1,045.3,0.398,728.4,01.19,0.508
2013-07-04 07:21:00,2083E-4,5C000000,-0724,0924,11367,026.1,045.3,0.397,728.4,01.19,0.508
2013-07-04 07:22:00,1508E-4,5C000000,-0724,0924,11079,026.1,045.3,0.398,728.4,01.19,0.508
2013-07-04 07:23:00,1410E-4,5C000000,-0724,0924,11137,026.1,045.3,0.398,728.4,01.19,0.508
2013-07-04 07:24:00,1296E-4,5C000000,-0724,0925,11084,026.1,045.3,0.397,728.4,01.19,0.508
2013-07-04 07:25:00,1584E-4,5C000000,-0724,0925,11259,026.1,045.3,0.398,728.4,01.19,0.508
2013-07-04 07:26:00,1508E-4,5C000000,-0724,0924,11290,026.1,045.3,0.398,728.4,01.19,0.508
2013-07-04 07:27:00,1585E-4,5C000000,-0724,0925,11466,026.1,045.3,0.397,728.4,01.19,0.508
2013-07-04 07:28:00,1501E-4,5C000000,-0724,0924,11324,026.1,045.3,0.398,728.4,01.19,0.508
2013-07-04 07:29:00,2268E-4,5C000000,-0724,0923,11358,026.1,045.3,0.398,728.4,01.19,0.508
2013-07-04 07:30:00,1481E-4,5C000000,-0724,0924,11149,026.1,045.3,0.397,728.4,01.19,0.508
2013-07-04 07:31:00,1744E-4,5C000000,-0724,0924,11016,026.1,045.3,0.398,728.4,01.19,0.508
2013-07-04 07:32:00,1820E-4,5C000000,-0724,0923,11342,026.1,045.3,0.397,728.4,01.19,0.508
2013-07-04 07:33:00,2554E-4,5C000000,-0724,0924,11223,026.1,045.3,0.398,728.4,01.19,0.508
2013-07-04 07:34:00,1761E-4,5C000000,-0724,0923,11188,026.1,045.3,0.398,728.4,01.19,0.508
2013-07-04 07:35:00,2521E-4,5C000000,-0724,0923,11196,026.1,045.3,0.398,728.4,01.19,0.508
2013-07-04 07:36:00,1715E-4,5C000000,-0724,0924,11284,026.1,045.3,0.398,728.4,01.19,0.508
2013-07-04 07:37:00,2115E-4,5C000000,-0724,0924,11361,026.2,045.3,0.398,728.4,01.19,0.508
2013-07-04 07:38:00,1619E-4,5C000000,-0724,0924,11296,026.2,045.3,0.398,728.4,01.19,0.508
2013-07-04 07:39:00,2159E-4,5C000000,-0724,0924,11369,026.3,045.3,0.398,728.4,01.19,0.508
2013-07-04 07:40:00,2230E-4,5C000000,-0724,0924,11172,026.3,045.3,0.398,728.4,01.19,0.508
2013-07-04 07:41:00,1970E-4,5C000000,-0724,0923,11335,026.3,045.3,0.398,728.4,01.19,0.508
2013-07-04 07:42:00,3119E-4,5C000000,-0724,0924,11302,026.3,045.3,0.398,728.4,01.19,0.508
2013-07-04 07:43:00,2641E-4,5C000000,-0724,0925,11411,026.3,045.3,0.397,728.4,01.19,0.508
2013-07-04 07:44:00,1520E-4,5C000000,-0724,0924,11318,026.3,045.3,0.398,728.4,01.19,0.508
2013-07-04 07:45:00,1740E-4,5C000000,-0724,0924,11333,026.3,045.3,0.397,728.4,01.19,0.508
2013-07-04 07:46:00,2254E-4,5C000000,-0724,0924,11139,026.4,045.3,0.397,728.4,01.19,0.508
2013-07-04 07:47:00,2749E-4,5C000000,-0724,0924,11179,026.4,045.3,0.398,728.4,01.19,0.508
2013-07-04 07:48:00,3341E-4,5C000000,-0724,0924,11234,026.4,045.3,0.398,728.4,01.19,0.508
2013-07-04 07:49:00,3178E-4,5C000000,-0724,0923,11265,026.4,045.3,0.397,728.4,01.19,0.508
2013-07-04 07:50:00,2117E-4,5C000000,-0724,0924,11276,026.4,045.3,0.397,728.4,01.19,0.508
2013-07-04 07:51:00,1643E-4,5C000000,-0724,0924,11324,026.4,045.3,0.397,728.4,01.19,0.508
2013-07-04 07:52:00,2230E-4,5C000000,-0724,0924,11255,026.5,045.3,0.397,728.4,01.19,0.508
2013-07-04 07:53:00,1593E-4,5C000000,-0724,0924,11318,026.5,045.3,0.398,728.4,01.19,0.508
2013-07-04 07:54:00,1404E-4,5C000000,-0724,0924,11317,026.5,045.3,0.397,728.4,01.19,0.508
2013-07-04 07:55:00,1914E-4,5C000000,-0724,0924,11394,026.6,045.3,0.397,728.4,01.19,0.508
2013-07-04 07:56:00,2195E-4,5C000000,-0724,0924,11345,026.6,045.3,0.397,728.4,01.19,0.508
2013-07-04 07:57:00,2583E-4,5C000000,-0724,0924,11378,026.6,045.3,0.397,728.4,01.19,0.508
2013-07-04 07:58:00,2311E-4,5C000000,-0724,0924,11239,026.6,045.3,0.396,728.4,01.19,0.508
2013-07-04 07:59:00,2333E-4,5C000000,-0724,0924,11235,026.6,045.3,0.396,728.4,01.19,0.508
2013-07-04 08:00:00,2010E-4,5C000000,-0724,0925,11229,026.6,045.3,0.396,728.4,01.19,0.508
2013-07-04 08:01:00,2532E-4,5C000000,-0724,0925,11365,026.7,045.3,0.397,728.4,01.19,0.508
2013-07-04 08:02:00,2423E-4,5C000000,-0724,0924,11341,026.7,045.3,0.397,728.4,01.19,0.508
2013-07-04 08:03:00,1631E-4,5C000000,-0724,0924,11314,026.7,045.3,0.397,728.4,01.19,0.508
2013-07-04 08:04:00,2498E-4,5C000000,-0724,0924,11276,026.7,045.3,0.397,728.4,01.19,0.508
2013-07-04 08:05:00,2097E-4,5C000000,-0724,0925,11313,026.6,045.3,0.396,728.4,01.19,0.508
2013-07-04 08:06:00,2422E-4,5C000000,-0724,0925,11162,026.7,045.3,0.397,728.4,01.19,0.508
2013-07-04 08:07:00,1939E-4,5C000000,-0724,0924,11326,026.7,045.3,0.397,728.4,01.19,0.508
2013-07-04 08:08:00,3073E-4,5C000000,-0724,0925,11185,026.6,045.3,0.397,728.4,01.19,0.508
2013-07-04 08:09:00,2747E-4,5C000000,-0724,0924,11251,026.6,045.3,0.396,728.4,01.19,0.508
2013-07-04 08:10:00,1850E-4,5C000000,-0724,0925,11248,026.7,045.3,0.397,728.3,01.19,0.508
2013-07-04 08:11:00,2339E-4,5C000000,-0724,0925,11175,026.6,045.3,0.397,728.4,01.19,0.508
2013-07-04 08:12:00,1619E-4,5C000000,-0724,0924,11341,026.7,045.3,0.397,728.4,01.19,0.508
2013-07-04 08:13:00,1867E-4,5C000000,-0724,0924,11219,026.9,045.3,0.397,728.4,01.19,0.508
2013-07-04 08:14:00,1868E-4,5C000000,-0724,0925,11356,027.0,045.3,0.394,728.6,01.19,0.508
2013-07-04 08:15:00,2246E-4,5C000000,-0724,0925,11245,026.9,045.3,0.397,728.3,01.19,0.508
2013-07-04 08:16:00,1397E-4,5C000000,-0724,0924,11335,026.9,045.3,0.396,728.3,01.19,0.508
2013-07-04 08:17:00,1739E-4,5C000000,-0724,0924,11325,026.9,045.3,0.396,728.3,01.19,0.508
2013-07-04 08:18:00,1851E-4,5C000000,-0724,0924,11352,026.9,045.3,0.396,728.3,01.19,0.508
2013-07-04 08:19:00,2355E-4,5C000000,-0724,0924,11046,026.9,045.3,0.396,728.4,01.19,0.508
2013-07-04 08:20:00,1900E-4,5C000000,-0724,0924,11262,026.9,045.3,0.396,728.4,01.19,0.508
2013-07-04 08:21:00,1086E-4,5C000000,-0724,0924,11388,026.9,045.3,0.395,728.3,01.19,0.508
2013-07-04 08:22:00,1269E-4,5C000000,-0724,0923,11317,026.9,045.3,0.396,728.4,01.19,0.508
2013-07-04 08:23:00,2105E-4,5C000000,-0724,0924,11247,026.9,045.3,0.396,728.4,01.19,0.508
2013-07-04 08:24:00,1825E-4,5C000000,-0724,0924,11339,026.9,045.3,0.395,728.4,01.19,0.508
2013-07-04 08:25:00,2006E-4,5C000000,-0724,0925,11352,026.9,045.3,0.395,728.4,01.19,0.508
2013-07-04 08:26:00,1801E-4,5C000000,-0724,0924,11313,026.9,045.3,0.395,728.4,01.19,0.508
2013-07-04 08:27:00,2811E-4,5C000000,-0724,0924,11309,027.0,045.4,0.395,728.4,01.19,0.508
2013-07-04 08:28:00,2025E-4,5C000000,-0724,0925,11284,026.9,045.3,0.395,728.4,01.19,0.508
2013-07-04 08:29:00,1633E-4,5C000000,-0724,0924,11257,027.1,045.3,0.395,728.4,01.19,0.508
2013-07-04 08:30:00,1317E-4,5C000000,-0724,0924,11314,027.0,045.4,0.395,728.4,01.19,0.508
2013-07-04 08:31:00,2213E-4,5C000000,-0724,0924,11285,027.0,045.3,0.395,728.4,01.19,0.508
2013-07-04 08:32:00,2978E-4,5C000000,-0724,0924,11314,026.9,045.3,0.395,728.4,01.19,0.508
2013-07-04 08:33:00,2237E-4,5C000000,-0724,0925,11353,026.9,045.3,0.395,728.4,01.19,0.508
2013-07-04 08:34:00,1553E-4,5C000000,-0724,0925,11101,027.0,045.3,0.395,728.4,01.19,0.508
2013-07-04 08:35:00,2064E-4,5C000000,-0724,0924,11250,027.0,045.3,0.395,728.4,01.19,0.508
2013-07-04 08:36:00,3062E-4,5C000000,-0724,0924,11330,027.0,045.4,0.395,728.4,01.19,0.508
2013-07-04 08:37:00,2778E-4,5C000000,-0724,0924,11348,027.0,045.3,0.395,728.4,01.19,0.508
2013-07-04 08:38:00,1512E-4,5C000000,-0724,0924,11266,027.0,045.3,0.395,728.5,01.19,0.508
2013-07-04 08:39:00,2597E-4,5C000000,-0724,0925,11433,027.0,045.3,0.395,728.4,01.19,0.508
2013-07-04 08:40:00,1706E-4,5C000000,-0724,0924,11276,026.9,045.4,0.396,728.5,01.19,0.508
2013-07-04 08:41:00,2574E-4,5C000000,-0724,0924,11323,026.9,045.3,0.395,728.5,01.19,0.508
2013-07-04 08:42:00,2720E-4,5C000000,-0724,0924,11231,027.0,045.3,0.396,728.5,01.19,0.508
2013-07-04 08:43:00,2234E-4,5C000000,-0724,0925,11425,027.0,045.3,0.395,728.5,01.19,0.508
2013-07-04 08:44:00,2019E-4,5C000000,-0724,0924,11272,027.0,045.3,0.395,728.5,01.19,0.508
2013-07-04 08:45:00,1279E-4,5C000000,-0724,0924,11161,027.0,045.4,0.395,728.5,01.19,0.508
2013-07-04 08:46:00,1954E-4,5C000000,-0724,0925,11321,027.1,045.3,0.395,728.6,01.19,0.508
2013-07-04 08:47:00,1302E-4,5C000000,-0724,0925,11326,027.1,045.4,0.395,728.6,01.19,0.508
2013-07-04 08:48:00,2028E-4,5C000000,-0724,0925,11140,027.1,045.3,0.395,728.5,01.19,0.508
2013-07-04 08:49:00,1771E-4,5C000000,-0724,0925,11431,027.1,045.3,0.395,728.5,01.19,0.508
2013-07-04 08:50:00,1967E-4,5C000000,-0724,0925,11336,027.1,045.3,0.394,728.6,01.19,0.508
2013-07-04 08:51:00,2113E-4,5C000000,-0724,0925,11251,027.1,045.3,0.395,728.5,01.19,0.508
2013-07-04 08:52:00,2783E-4,5C000000,-0724,0925,11378,027.1,045.4,0.395,728.5,01.19,0.508
2013-07-04 08:53:00,1920E-4,5C000000,-0724,0925,11254,027.1,045.3,0.395,728.5,01.19,0.508
2013-07-04 08:54:00,1861E-4,5C000000,-0724,0924,11264,027.2,045.3,0.395,728.5,01.19,0.508
2013-07-04 08:55:00,1869E-4,5C000000,-0724,0924,11327,027.2,045.3,0.395,728.5,01.19,0.508
2013-07-04 08:56:00,2840E-4,5C000000,-0724,0924,11215,027.1,045.3,0.395,728.5,01.19,0.508
2013-07-04 08:57:00,2609E-4,5C000000,-0724,0925,11376,027.2,045.3,0.396,728.5,01.19,0.508
2013-07-04 08:58:00,2417E-4,5C000000,-0724,0925,11269,027.2,045.3,0.396,728.5,01.19,0.508
2013-07-04 08:59:00,1893E-4,5C000000,-0724,0924,11360,027.2,045.3,0.396,728.5,01.19,0.508
2013-07-04 09:00:00,1958E-4,5C000000,-0724,0925,11388,027.2,045.3,0.396,728.4,01.19,0.508
2013-07-04 09:01:00,1644E-4,5C000000,-0724,0925,11259,027.3,045.3,0.396,728.4,01.19,0.508
2013-07-04 09:02:00,2012E-4,5C000000,-0724,0924,11223,027.3,045.4,0.396,728.4,01.19,0.508
2013-07-04 09:03:00,2464E-4,5C000000,-0724,0926,11020,027.3,045.3,0.396,728.5,01.19,0.508
2013-07-04 09:04:00,2642E-4,5C000000,-0724,0925,11372,027.3,045.4,0.395,728.4,01.19,0.508
2013-07-04 09:05:00,2817E-4,5C000000,-0724,0924,11328,027.3,045.3,0.395,728.4,01.19,0.508
2013-07-04 09:06:00,1692E-4,5C000000,-0724,0926,11198,027.3,045.4,0.395,728.4,01.19,0.508
2013-07-04 09:07:00,2285E-4,5C000000,-0724,0925,11334,027.3,045.4,0.395,728.4,01.19,0.508
2013-07-04 09:08:00,2262E-4,5C000000,-0724,0924,11387,027.4,045.4,0.395,728.4,01.19,0.508
2013-07-04 09:09:00,2035E-4,5C000000,-0724,0925,11276,027.4,045.3,0.395,728.4,01.19,0.508
2013-07-04 09:10:00,2900E-4,5C000000,-0724,0924,11224,027.3,045.4,0.395,728.4,01.19,0.508
2013-07-04 09:11:00,2970E-4,5C000000,-0724,0925,11203,027.3,045.3,0.395,728.4,01.19,0.508
2013-07-04 09:12:00,2431E-4,5C000000,-0724,0925,11229,027.3,045.3,0.395,728.4,01.19,0.508
2013-07-04 09:13:00,1865E-4,5C000000,-0724,0924,11341,027.3,045.4,0.395,728.4,01.19,0.508
2013-07-04 09:14:00,2985E-4,5C000000,-0724,0925,11164,027.3,045.3,0.395,728.5,01.19,0.508
2013-07-04 09:15:00,3302E-4,5C000000,-0724,0925,11323,027.3,045.3,0.395,728.5,01.19,0.508
2013-07-04 09:16:00,1856E-4,5C000000,-0724,0924,11366,027.3,045.3,0.395,728.4,01.19,0.508
2013-07-04 09:17:00,2603E-4,5C000000,-0724,0924,11296,027.3,045.3,0.395,728.5,01.19,0.508
2013-07-04 09:18:00,2266E-4,5C000000,-0724,0924,11236,027.3,045.3,0.395,728.4,01.19,0.508
2013-07-04 09:19:00,2087E-4,5C000000,-0724,0924,11414,027.3,045.3,0.395,728.5,01.19,0.508
2013-07-04 09:20:00,1778E-4,5C000000,-0724,0924,11133,027.5,045.4,0.395,728.4,01.19,0.508
2013-07-04 09:21:00,2062E-4,5C000000,-0724,0925,11361,027.5,045.4,0.395,728.4,01.19,0.508
2013-07-04 09:22:00,1409E-4,5C000000,-0724,0925,11279,027.5,045.4,0.395,728.4,01.19,0.508
2013-07-04 09:23:00,1278E-4,5C000000,-0724,0925,11354,027.6,045.4,0.395,728.4,01.19,0.508
2013-07-04 09:24:00,3125E-4,5C000000,-0724,0925,11283,027.6,045.4,0.395,728.4,01.19,0.508
2013-07-04 09:25:00,1581E-4,5C000000,-0724,0925,11213,027.7,045.4,0.394,728.4,01.19,0.508
2013-07-04 09:26:00,1701E-4,5C000000,-0724,0925,11263,027.7,045.4,0.395,728.4,01.19,0.508
2013-07-04 09:27:00,2137E-4,5C000000,-0724,0925,11257,027.8,045.4,0.395,728.4,01.19,0.508
2013-07-04 09:28:00,2616E-4,5C000000,-0724,0925,11315,027.8,045.4,0.395,728.4,01.19,0.508
2013-07-04 09:29:00,2037E-4,5C000000,-0724,0926,11349,027.8,045.4,0.394,728.4,01.19,0.508
2013-07-04 09:30:00,2343E-4,5C000000,-0724,0926,11312,027.9,045.4,0.394,728.4,01.19,0.508
2013-07-04 09:31:00,1583E-4,5C000000,-0724,0925,11336,027.9,045.4,0.394,728.4,01.19,0.508
2013-07-04 09:32:00,1539E-4,5C000000,-0724,0926,11269,028.0,045.4,0.394,728.4,01.19,0.508
2013-07-04 09:33:00,1929E-4,5C000000,-0724,0926,11101,028.1,045.4,0.394,728.4,01.19,0.508
2013-07-04 09:34:00,2892E-4,5C000000,-0724,0927,11304,028.2,045.4,0.394,728.4,01.19,0.508
2013-07-04 09:35:00,1849E-4,5C000000,-0724,0926,11249,028.3,045.4,0.393,728.4,01.19,0.508
2013-07-04 09:36:00,2317E-4,5C000000,-0724,0926,11215,028.2,045.4,0.394,728.4,01.19,0.508
2013-07-04 09:37:00,1697E-4,5C000000,-0724,0927,11352,028.2,045.4,0.393,728.4,01.19,0.508
2013-07-04 09:38:00,2069E-4,5C000000,-0724,0926,11275,028.3,045.4,0.393,728.4,01.19,0.508
2013-07-04 09:39:00,2133E-4,5C000000,-0724,0928,11213,028.4,045.4,0.393,728.4,01.19,0.508
2013-07-04 09:40:00,3259E-4,5C000000,-0724,0926,11312,028.4,045.4,0.393,728.4,01.19,0.508
2013-07-04 09:41:00,1720E-4,5C000000,-0724,0926,11419,028.4,045.4,0.393,728.4,01.19,0.508
2013-07-04 09:42:00,2916E-4,5C000000,-0724,0926,11289,028.5,045.4,0.393,728.4,01.19,0.508
2013-07-04 09:43:00,1438E-4,5C000000,-0724,0927,11171,028.5,045.4,0.393,728.4,01.19,0.508
2013-07-04 09:44:00,2174E-4,5C000000,-0724,0926,11028,028.5,045.4,0.392,728.4,01.19,0.508
2013-07-04 09:45:00,2177E-4,5C000000,-0724,0926,11229,028.5,045.4,0.393,728.5,01.19,0.508
2013-07-04 09:46:00,2668E-4,5C000000,-0724,0927,11338,028.6,045.4,0.393,728.4,01.19,0.508
2013-07-04 09:47:00,1836E-4,5C000000,-0724,0927,11285,028.6,045.4,0.392,728.5,01.19,0.508
2013-07-04 09:48:00,2196E-4,5C000000,-0724,0925,11244,028.7,045.4,0.392,728.5,01.19,0.508
2013-07-04 09:49:00,2705E-4,5C000000,-0724,0927,11312,028.7,045.4,0.392,728.5,01.19,0.508
2013-07-04 09:50:00,1813E-4,5C000000,-0724,0926,11201,028.7,045.4,0.391,728.4,01.19,0.508
2013-07-04 09:51:00,1854E-4,5C000000,-0724,0927,11180,028.7,045.4,0.392,728.4,01.19,0.508
2013-07-04 09:52:00,2053E-4,5C000000,-0724,0927,11262,028.8,045.4,0.392,728.4,01.19,0.508
2013-07-04 09:53:00,1929E-4,5C000000,-0724,0927,11132,028.8,045.4,0.392,728.4,01.19,0.508
2013-07-04 09:54:00,1705E-4,5C000000,-0724,0926,11320,028.9,045.4,0.391,728.4,01.19,0.508
2013-07-04 09:55:00,1935E-4,5C000000,-0724,0927,11028,028.9,045.4,0.391,728.4,01.19,0.508
2013-07-04 09:56:00,2409E-4,5C000000,-0724,0927,11172,028.9,045.4,0.392,728.4,01.19,0.508
2013-07-04 09:57:00,2064E-4,5C000000,-0724,0927,11306,028.9,045.4,0.392,728.4,01.19,0.508
2013-07-04 09:58:00,1731E-4,5C000000,-0724,0928,11149,029.0,045.4,0.391,728.4,01.19,0.508
2013-07-04 09:59:00,2587E-4,5C000000,-0724,0927,11219,029.0,045.4,0.391,728.5,01.19,0.508
2013-07-04 10:00:00,1683E-4,5C000000,-0724,0928,11300,029.0,045.4,0.391,728.5,01.19,0.508
2013-07-04 10:01:00,3513E-4,5C000000,-0724,0927,11406,029.0,045.4,0.391,728.5,01.19,0.508
2013-07-04 10:02:00,2880E-4,5C000000,-0724,0927,11243,029.1,045.4,0.391,728.5,01.19,0.508
2013-07-04 10:03:00,1353E-4,5C000000,-0724,0928,11290,029.1,045.4,0.391,728.5,01.19,0.508
2013-07-04 10:04:00,2276E-4,5C000000,-0724,0928,11310,029.1,045.4,0.391,728.5,01.19,0.508
2013-07-04 10:05:00,1802E-4,5C000000,-0724,0927,11167,029.1,045.4,0.391,728.5,01.19,0.508
2013-07-04 10:06:00,3225E-4,5C000000,-0724,0928,11242,029.0,045.4,0.390,728.5,01.19,0.508
2013-07-04 10:07:00,2143E-4,5C000000,-0724,0928,11321,029.1,045.4,0.390,728.5,01.19,0.508
2013-07-04 10:08:00,3002E-4,5C000000,-0724,0927,11268,029.1,045.4,0.390,728.5,01.19,0.508
2013-07-04 10:09:00,2473E-4,5C000000,-0724,0928,11131,029.1,045.4,0.391,728.5,01.19,0.508
2013-07-04 10:10:00,2228E-4,5C000000,-0724,0926,11263,029.1,045.4,0.391,728.5,01.19,0.508
2013-07-04 10:11:00,1892E-4,5C000000,-0724,0927,10871,029.1,045.4,0.391,728.5,01.19,0.508
2013-07-04 10:12:00,1679E-4,5C000000,-0724,0928,11281,029.2,045.4,0.391,728.5,01.19,0.508
2013-07-04 10:13:00,2313E-4,5C000000,-0724,0928,11177,029.2,045.4,0.391,728.5,01.19,0.508
2013-07-04 10:14:00,1810E-4,5C000000,-0724,0927,11266,029.1,045.4,0.391,728.5,01.19,0.508
2013-07-04 10:15:00,1631E-4,5C000000,-0724,0927,11318,029.1,045.4,0.391,728.5,01.19,0.508
2013-07-04 10:16:00,2782E-4,5C000000,-0724,0927,11258,029.0,045.4,0.391,728.5,01.19,0.508
2013-07-04 10:17:00,3044E-4,5C000000,-0724,0927,11262,029.0,045.4,0.391,728.5,01.19,0.508
2013-07-04 10:18:00,1911E-4,5C000000,-0724,0928,11330,028.9,045.4,0.391,728.5,01.19,0.508
2013-07-04 10:19:00,2838E-4,5C000000,-0724,0927,11189,028.9,045.4,0.391,728.5,01.19,0.508
2013-07-04 10:20:00,1668E-4,5C000000,-0724,0927,11233,028.9,045.4,0.391,728.5,01.19,0.508
2013-07-04 10:21:00,1947E-4,5C000000,-0724,0928,11089,028.9,045.4,0.391,728.5,01.19,0.508
2013-07-04 10:22:00,1352E-4,5C000000,-0724,0926,11330,028.9,045.4,0.391,728.5,01.19,0.508
2013-07-04 10:23:00,2805E-4,5C000000,-0724,0928,11189,028.8,045.4,0.391,728.5,01.19,0.508
2013-07-04 10:24:00,2248E-4,5C000000,-0724,0927,11258,028.8,045.4,0.392,728.5,01.19,0.508
2013-07-04 10:25:00,2537E-4,5C000000,-0724,0927,11241,028.8,045.4,0.391,728.5,01.19,0.508
2013-07-04 10:26:00,2024E-4,5C000000,-0724,0927,11045,028.8,045.4,0.391,728.5,01.19,0.508
2013-07-04 10:27:00,2290E-4,5C000000,-0724,0927,11152,028.8,045.4,0.391,728.5,01.19,0.508
2013-07-04 10:28:00,2922E-4,5C000000,-0724,0927,11028,028.8,045.4,0.391,728.5,01.19,0.508
2013-07-04 10:29:00,2239E-4,5C000000,-0724,0927,11025,028.8,045.4,0.392,728.5,01.19,0.508
2013-07-04 10:30:00,1770E-4,5C000000,-0724,0926,11227,028.7,045.4,0.392,728.5,01.19,0.508
2013-07-04 10:31:00,2351E-4,5C000000,-0724,0927,11144,028.7,045.4,0.392,728.5,01.19,0.508
2013-07-04 10:32:00,2086E-4,5C000000,-0724,0927,11161,028.7,045.4,0.392,728.5,01.19,0.508
2013-07-04 10:33:00,1985E-4,5C000000,-0724,0927,11199,028.7,045.4,0.391,728.5,01.19,0.508
2013-07-04 10:34:00,3447E-4,5C000000,-0724,0926,11273,028.7,045.4,0.391,728.5,01.19,0.508
2013-07-04 10:35:00,2277E-4,5C000000,-0724,0927,11221,028.7,045.4,0.391,728.4,01.19,0.508
2013-07-04 10:36:00,2094E-4,5C000000,-0724,0927,11033,028.7,045.4,0.391,728.4,01.19,0.508
2013-07-04 10:37:00,2853E-4,5C000000,-0724,0927,11063,028.8,045.4,0.392,728.4,01.19,0.508